This is the latest recevied weather packets stored in our database for station/object N6RDS. If no packets are shown the sender has not sent any weather packets the latest 10 day(s).
| Time | Temp. | Humidity | Pressure | Rain* | Wind** | Luminosity | Snow |
|---|---|---|---|---|---|---|---|
| 1777943778 | 11.11° C | 39% | 1020.7 hPa | 0 mm | - | 33 W/m² | - |
| 1777943475 | 11.67° C | 40% | 1020.7 hPa | 0 mm | - | 34 W/m² | - |
| 1777943170 | 11.67° C | 40% | 1020.7 hPa | 0 mm | - | 40 W/m² | - |
| 1777942868 | 12.22° C | 41% | 1020.6 hPa | 0 mm | - | 43 W/m² | - |
| 1777942563 | 11.67° C | 41% | 1020.5 hPa | 0 mm | - | 55 W/m² | - |
| 1777942261 | 11.67° C | 40% | 1020.4 hPa | 0 mm | - | 49 W/m² | - |
| 1777941958 | 12.22° C | 41% | 1020.6 hPa | 0 mm | - | 69 W/m² | - |
| 1777941655 | 12.22° C | 42% | 1020.5 hPa | 0 mm | - | 86 W/m² | - |
| 1777941352 | 12.22° C | 42% | 1020.6 hPa | 0 mm | - | 77 W/m² | - |
| 1777941049 | 12.22° C | 42% | 1020.6 hPa | 0 mm | - | 75 W/m² | - |
| 1777940744 | 12.78° C | 42% | 1020.7 hPa | 0 mm | - | 89 W/m² | - |
| 1777940443 | 13.33° C | 41% | 1020.5 hPa | 0 mm | - | 93 W/m² | - |
| 1777940140 | 12.78° C | 41% | 1020.4 hPa | 0 mm | - | 91 W/m² | - |
| 1777939837 | 12.78° C | 42% | 1020.5 hPa | 0 mm | - | 124 W/m² | - |
| 1777939534 | 13.33° C | 41% | 1020.6 hPa | 0 mm | - | 114 W/m² | - |
| 1777939232 | 12.78° C | 41% | 1020.5 hPa | 0 mm | - | 177 W/m² | - |
| 1777938928 | 13.33° C | 40% | 1020.8 hPa | 0 mm | - | 104 W/m² | - |
| 1777938625 | 13.33° C | 40% | 1020.7 hPa | 0 mm | - | 108 W/m² | - |
| 1777938322 | 13.33° C | 39% | 1020.7 hPa | 0 mm | - | 164 W/m² | - |
| 1777938019 | 13.89° C | 38% | 1020.8 hPa | 0 mm | - | 157 W/m² | - |
| 1777937714 | 13.33° C | 38% | 1020.8 hPa | 0 mm | - | 170 W/m² | - |
| 1777937412 | 13.89° C | 37% | 1020.7 hPa | 0 mm | - | 143 W/m² | - |
| 1777937108 | 13.89° C | 38% | 1020.6 hPa | 0 mm | - | 134 W/m² | - |
| 1777936806 | 14.44° C | 36% | 1020.8 hPa | 0 mm | - | 169 W/m² | - |
| 1777936502 | 13.89° C | 36% | 1020.8 hPa | 0 mm | - | 290 W/m² | - |
* Rain latest hour (hover to see other rain measurements)
** Current wind speed in m/s (hover to see current wind gust speed)